Location: Unspecified
(0.0000°N, 0.0000°E)
Time: 02:36:08
(UTC+02:00)

PROBA 2 - Visible Passes

Search period start: 26 May 2016 00:00
Search period end: 05 June 2016 00:00
Orbit: 705 x 726 km, 98.3° (Epoch: 25 May)

Date Brightness Start Highest point End Pass type
(mag) Time Alt. Az. Time Alt. Az. Time Alt. Az.
26 May ? 20:40:36 10° N 20:45:14 48° WNW 20:49:54 10° SSW visible
27 May ? 07:27:52 10° ESE 07:31:02 18° ENE 07:34:12 10° NE visible
27 May ? 21:30:17 10° NW 21:32:03 12° WNW 21:33:48 10° W visible
28 May ? 20:36:26 10° N 20:41:08 55° WNW 20:45:53 10° SSW visible
29 May ? 07:24:08 10° ESE 07:26:57 16° ENE 07:29:45 10° NE visible
29 May ? 21:25:36 10° NW 21:27:57 14° WNW 21:30:20 10° WSW visible
30 May ? 20:32:17 10° N 20:37:02 63° WNW 20:41:50 10° SSW visible
31 May ? 07:20:29 10° ESE 07:22:51 14° ENE 07:25:12 10° NE visible
31 May ? 21:21:03 10° NW 21:23:51 16° WNW 21:26:41 10° WSW visible
01 Jun ? 20:28:09 10° N 20:32:57 72° WNW 20:37:47 10° SSW visible
02 Jun ? 07:17:00 10° E 07:18:45 12° ENE 07:20:31 10° NE visible
02 Jun ? 21:16:36 10° NW 21:19:46 18° WNW 21:22:58 10° WSW visible
03 Jun ? 20:24:02 10° N 20:28:51 81° WNW 20:33:43 10° SSW visible
04 Jun ? 07:14:01 10° E 07:14:40 10° ENE 07:15:19 10° ENE visible
04 Jun ? 21:12:13 10° NNW 21:15:41 20° WNW 21:19:10 10° SW visible
